Weather History for Denver, CO

Change the Weather History Date:

Wednesday, November 23, 2011

  Actual Average (KDEN) Record (KDEN)
Temperature  
Mean Temperature 46 °F 35 °F  
Max Temperature 64 °F 49 °F 73 °F (1915)
Min Temperature 28 °F 21 °F -4 °F (1880)
Degree Days  
Heating Degree Days 19 30  
Month to date heating degree days 579  
Since 1 July heating degree days 1160  
Cooling Degree Days 0 0  
Month to date cooling degree days 0  
Year to date cooling degree days 769  
Moisture  
Dew Point 16 °F    
Average Humidity 35    
Maximum Humidity 69    
Minimum Humidity 11    
Precipitation  
Precipitation 0.00 in 0.02 in 0.42 in (1992)
Month to date precipitation 0.50  
Year to date precipitation 13.84  
Snow  
Snow 0.00 in - - ()
Month to date snowfall  
Since 1 July snowfall  
Since 1 September snowfall  
Snow Depth -    
Sea Level Pressure  
Sea Level Pressure 30.16 in    
Wind  
Wind Speed 8 mph (SSW)    
Max Wind Speed 14 mph    
Max Gust Speed -    
Visibility 10 miles    
Events      
T = Trace of Precipitation, MM = Missing Value Source: NWS Daily Summary

Daily Weather History Graph

Daily Weather History Graph

Search for Another Location

Airport:

Trip Planner

Search our weather history database for the weather conditions in past years. The results will help you decide how hot, cold, wet, or windy it might be!

Date:

Astronomy

Nov. 23, 2011 Rise Set
Actual Time 6:51 AM MST 4:37 PM MST
Civil Twilight 6:22 AM MST 5:06 PM MST
Nautical Twilight 5:49 AM MST 5:39 PM MST
Astronomical Twilight 5:16 AM MST 6:11 PM MST
Moon 4:59 AM MST (11/23) 3:20 PM MST (11/23)
Length of Visible Light 10h 44m
Length of Day
9h 45m
Waning Crescent, 3% of the Moon is Illuminated
Nov 23
Waning Crescent
Nov 24
New
Dec 2
First Quarter
Dec 10
Full
Dec 17
Last Quarter

Hourly Weather History & Observations

Time (MST) Temp. Windchill Dew Point Humidity Pressure Visibility Wind Dir Wind Speed Gust Speed Precip Events Conditions
12:11 AM 30.2 °F 25.4 °F 19.4 °F 64% 30.22 in 10.0 mi South 4.6 mph - N/A   Clear
12:31 AM 28.4 °F 21.2 °F 19.4 °F 69% 30.21 in 10.0 mi South 6.9 mph - N/A   Clear
12:51 AM 28.4 °F 22.2 °F 19.4 °F 69% 30.21 in 10.0 mi South 5.8 mph - N/A   Clear
1:31 AM 30.2 °F 21.9 °F 19.4 °F 64% 30.21 in 10.0 mi South 9.2 mph - N/A   Clear
1:51 AM 30.2 °F 22.6 °F 19.4 °F 64% 30.21 in 10.0 mi South 8.1 mph - N/A   Clear
2:31 AM 30.2 °F 23.4 °F 19.4 °F 64% 30.20 in 10.0 mi South 6.9 mph - N/A   Clear
2:51 AM 28.4 °F 22.2 °F 19.4 °F 69% 30.20 in 10.0 mi South 5.8 mph - N/A   Clear
3:31 AM 28.4 °F 18.5 °F 19.4 °F 69% 30.19 in 10.0 mi SSW 11.5 mph - N/A   Clear
3:51 AM 33.8 °F 25.3 °F 19.4 °F 56% 30.19 in 10.0 mi South 11.5 mph - N/A   Clear
4:31 AM 37.4 °F 29.3 °F 17.6 °F 45% 30.19 in 10.0 mi SSW 12.7 mph - N/A   Clear
4:51 AM 33.8 °F 24.8 °F 19.4 °F 56% 30.19 in 10.0 mi South 12.7 mph - N/A   Clear
5:11 AM 35.6 °F 26.6 °F 17.6 °F 48% 30.19 in 10.0 mi SSW 13.8 mph - N/A   Clear
5:31 AM 33.8 °F 27.7 °F 17.6 °F 52% 30.20 in 10.0 mi SE 6.9 mph - N/A   Clear
5:51 AM 32.0 °F 24.8 °F 19.4 °F 60% 30.20 in 10.0 mi SE 8.1 mph - N/A   Clear
6:11 AM 33.8 °F 24.8 °F 17.6 °F 52% 30.20 in 10.0 mi SSW 12.7 mph - N/A   Clear
6:51 AM 41.0 °F 34.3 °F 14.0 °F 33% 30.20 in 10.0 mi SSW 11.5 mph - N/A   Clear
7:11 AM 39.2 °F 32.0 °F 14.0 °F 36% 30.20 in 10.0 mi SSW 11.5 mph - N/A   Clear
7:31 AM 41.0 °F 33.5 °F 14.0 °F 33% 30.21 in 10.0 mi SSW 13.8 mph - N/A   Clear
7:51 AM 44.6 °F 38.4 °F 14.0 °F 29% 30.21 in 10.0 mi SSW 12.7 mph - N/A   Clear
8:11 AM 44.6 °F 38.8 °F 15.8 °F 31% 30.22 in 10.0 mi SSW 11.5 mph - N/A   Clear
8:31 AM 42.8 °F 39.3 °F 17.6 °F 36% 30.22 in 10.0 mi South 5.8 mph - N/A   Clear
8:51 AM 44.6 °F 39.7 °F 15.8 °F 31% 30.22 in 10.0 mi SSW 9.2 mph - N/A   Clear
9:11 AM 50.0 °F - 15.8 °F 26% 30.22 in 10.0 mi SSW 10.4 mph - N/A   Clear
9:31 AM 51.8 °F - 17.6 °F 26% 30.22 in 10.0 mi SSW 9.2 mph - N/A   Clear
9:50 AM 53.6 °F - 17.6 °F 24% 30.22 in 10.0 mi SW 9.2 mph - N/A   Clear
10:11 AM 55.4 °F - 17.6 °F 23% 30.22 in 10.0 mi SSW 6.9 mph - N/A   Clear
10:31 AM 59.0 °F - 15.8 °F 19% 30.20 in 10.0 mi South 6.9 mph - N/A   Clear
11:11 AM 60.8 °F - 12.2 °F 15% 30.18 in 10.0 mi SW 8.1 mph - N/A   Clear
11:31 AM 62.6 °F - 10.4 °F 13% 30.16 in 10.0 mi SSW 8.1 mph - N/A   Clear
11:50 AM 62.6 °F - 10.4 °F 13% 30.16 in 10.0 mi WSW 9.2 mph - N/A   Clear
12:11 PM 64.4 °F - 8.6 °F 11% 30.15 in 10.0 mi SW 5.8 mph - N/A   Clear
12:31 PM 62.6 °F - 10.4 °F 13% 30.14 in 10.0 mi West 4.6 mph - N/A   Clear
12:51 PM 62.6 °F - 8.6 °F 12% 30.12 in 10.0 mi WSW 3.5 mph - N/A   Clear
1:11 PM 64.4 °F - 10.4 °F 12% 30.12 in 10.0 mi WNW 5.8 mph - N/A   Clear
1:28 PM 64.4 °F - 10.4 °F 12% 30.11 in 10.0 mi NW 5.8 mph - N/A   Clear
1:45 PM 64.4 °F - 10.4 °F 12% 30.10 in 10.0 mi NNW 6.9 mph - N/A   Clear
2:07 PM 62.6 °F - 12.2 °F 14% 30.10 in 10.0 mi NW 5.8 mph - N/A   Clear
2:28 PM 62.6 °F - 12.2 °F 14% 30.10 in 10.0 mi North 5.8 mph - N/A   Clear
3:11 PM 60.8 °F - 14.0 °F 16% 30.09 in 10.0 mi North 6.9 mph - N/A   Clear
3:23 PM 60.8 °F - 14.0 °F 16% 30.09 in 10.0 mi NNW 5.8 mph - N/A   Clear
4:31 PM 55.4 °F - 19.4 °F 25% 30.09 in 7.0 mi East 4.6 mph - N/A   Clear
4:51 PM 50.0 °F - 19.4 °F 30% 30.10 in 10.0 mi SSE 4.6 mph - N/A   Clear
5:05 PM 51.8 °F - 19.4 °F 28% 30.09 in 10.0 mi NNE 3.5 mph - N/A   Clear
5:51 PM 37.4 °F 34.9 °F 17.6 °F 45% 30.10 in 10.0 mi SSE 3.5 mph - N/A   Clear
6:11 PM 39.2 °F 35.0 °F 19.4 °F 45% 30.10 in 10.0 mi SSE 5.8 mph - N/A   Clear
7:11 PM 39.2 °F 33.0 °F 17.6 °F 42% 30.10 in 10.0 mi South 9.2 mph - N/A   Clear
7:31 PM 35.6 °F 28.6 °F 17.6 °F 48% 30.09 in 10.0 mi South 9.2 mph - N/A   Clear
7:51 PM 50.0 °F - 14.0 °F 24% 30.09 in 10.0 mi SSW 11.5 mph - N/A   Clear
8:11 PM 46.4 °F 41.5 °F 14.0 °F 27% 30.09 in 10.0 mi SSW 10.4 mph - N/A   Clear
8:30 PM 46.4 °F 41.9 °F 14.0 °F 27% 30.09 in 10.0 mi SSW 9.2 mph - N/A   Clear
8:51 PM 44.6 °F 39.2 °F 14.0 °F 29% 30.08 in 10.0 mi SSW 10.4 mph - N/A   Clear
9:11 PM 41.0 °F 37.1 °F 14.0 °F 33% 30.07 in 10.0 mi SE 5.8 mph - N/A   Clear
9:31 PM 44.6 °F 38.4 °F 14.0 °F 29% 30.07 in 10.0 mi SW 12.7 mph - N/A   Clear
9:51 PM 46.4 °F 40.4 °F 14.0 °F 27% 30.07 in 10.0 mi SW 13.8 mph - N/A   Clear
10:11 PM 46.4 °F 41.1 °F 12.2 °F 25% 30.06 in 10.0 mi SW 11.5 mph - N/A   Clear
10:31 PM 42.8 °F 38.0 °F 12.2 °F 29% 30.05 in 10.0 mi SW 8.1 mph - N/A   Clear
10:51 PM 42.8 °F 37.0 °F 12.2 °F 29% 30.04 in 10.0 mi SW 10.4 mph - N/A   Clear
11:10 PM 42.8 °F 36.6 °F 12.2 °F 29% 30.04 in 10.0 mi SSW 11.5 mph - N/A   Clear
11:31 PM 44.6 °F 37.8 °F 12.2 °F 27% 30.03 in 10.0 mi SSW 15.0 mph - N/A   Clear
11:51 PM 44.6 °F 38.4 °F 10.4 °F 25% 30.02 in 10.0 mi SW 12.7 mph - N/A   Clear